Flag for Poland Weather past 2 weeks in Tarnów, Poland

Now
47 °F

Passing clouds.


Feels Like: 47 °F
Forecast: 50 / 72 °F
Wind: No wind

Location: Tarnow

Current Time: Sep 19, 2014 at 8:02:47 AM

Latest Report: Sep 19, 2014 at 7:00 AM


Visibility: 6 mi

Pressure: 30.16 "Hg

Humidity: 95%

Dew point: 46 °F

Location of TarnówLocation

Historic Weather in Tarnów — Graph

°F

Tarnów temperature yesterday

Maximum temperature yesterday: 73 °F (at 2:00 PM)
Minimum temperature yesterday: 45 °F (at 7:00 AM)
Average temperature yesterday: 60 °F

Past Weeks' High & Low Weather Summary

 TemperatureHumidityPressure
High80 °F (Sep 12, 3:00 PM)100% (Sep 12, 3:00 AM)30.22 "Hg (Sep 12, 3:00 AM)
Low45 °F (Sep 18, 7:00 AM)36% (Sep 18, 2:00 PM)29.92 "Hg (Sep 6, 4:00 PM)
Average63 °F78%30.05 "Hg
* Reported Sep 4 5:00 AM — Sep 19 5:00 AM, Tarnów, Weather by CustomWeather, © 2014

Note: Actual official high and low records may vary slightly from our data, if they occured in-between our weather recording intervals... More about our weather records

Advertising

Tarnów weather history for previous 24 hours

 ConditionsComfort  
Time TempWeatherWind HumidityBarometerVisibility
5:00 AM
Sep 19
48 °FClear.No wind94%30.15 "Hg6 mi
2:00 AM53 °FClear.No wind85%30.14 "Hg14 mi
11:00 PM
Sep 18
55 °FClear.No wind78%30.15 "Hg12 mi
10:00 PM57 °FClear.1 mph75%30.15 "Hg11 mi
9:00 PM59 °FClear.1 mph68%30.15 "Hg11 mi
8:00 PM62 °FPassing clouds.2 mph62%30.14 "Hg8 mi
5:00 PM72 °FPassing clouds.3 mph43%30.11 "Hg19 mi
4:00 PM72 °FPassing clouds.3 mph40%30.11 "Hg17 mi
3:00 PM73 °FSunny.3 mph40%30.11 "Hg19 mi
2:00 PM73 °FSunny.3 mph36%30.11 "Hg22 mi
1:00 PM73 °FSunny.3 mph40%30.13 "Hg16 mi
12:00 PM71 °FSunny.2 mph46%30.14 "Hg22 mi
11:00 AM69 °FSunny.3 mph58%30.15 "Hg14 mi
10:00 AM64 °FSunny.2 mph62%30.17 "Hg16 mi
9:00 AM60 °FSunny.1 mph72%30.16 "Hg12 mi
8:00 AM53 °FSunny.1 mph97%30.16 "Hg9 mi
Weather by CustomWeather, © 2014

See weather overviewHow to use our weather pages